Regional Weather Roundup
Issued by NWS Charleston, WV

Home | Current Version | Previous Version | Graphics & Text | Print | Product List | Glossary On
Versions: 1 2 3 4 5 6 7 8 9 10 11 12 13 14 15 16 17 18 19 20 21 22 23 24 25 26 27 28 29 30 31 32 33 34 35 36 37 38 39 40 41 42 43 44 45 46 47 48 49 50
121
ASUS41 KRLX 060510
RWRRLX
West Virginia Regional Weather Roundup
National Weather Service Charleston WV
100 AM EDT FRI MAY 06 2016

Note: "fair" indicates few or no clouds below 12,000 feet with no
significant weather and/or obstructions to visibility.

WVZ003-060600-
Northern Panhandle of West Virginia

CITY           SKY/WX    TMP DP  RH WIND       PRES   REMARKS
WHEELING         N/A     49  42  77 N13       29.78R
$$

WVZ009-060600-
Northwest West Virginia

CITY           SKY/WX    TMP DP  RH WIND       PRES   REMARKS
PARKERSBURG    CLOUDY    51  45  79 NW7       29.81S
$$

WVZ006-060600-
Western West Virginia

CITY           SKY/WX    TMP DP  RH WIND       PRES   REMARKS
HUNTINGTON       N/A     50  45  83 NW6       29.82S
$$

WVZ015-060600-
West Central West Virginia

CITY           SKY/WX    TMP DP  RH WIND       PRES   REMARKS
CHARLESTON     CLOUDY    51  48  89 W6        29.79S
$$

WVZ022-031-060600-
North Central West Virginia

CITY           SKY/WX    TMP DP  RH WIND       PRES   REMARKS
CLARKSBURG     CLOUDY    51  48  89 N3        29.75S
MORGANTOWN     MOCLDY    51  47  86 CALM      29.76R FOG
$$

WVZ025-035-042-045-060600-
Southern West Virginia

CITY           SKY/WX    TMP DP  RH WIND       PRES   REMARKS
BECKLEY        LGT RAIN  46  44  93 NW9       29.76S
LOGAN          NOT AVBL
BLUEFIELD      CLOUDY    42  41  96 W8        29.77S
LEWISBURG      LGT RAIN  44  44  99 CALM      29.73S
$$

WVZ047-060600-
Northern Mountains of West Virginia

CITY           SKY/WX    TMP DP  RH WIND       PRES   REMARKS
ELKINS         CLOUDY    47  45  93 CALM      29.74R
$$

WVZ052-060600-
Eastern Panhandle of West Virginia

CITY           SKY/WX    TMP DP  RH WIND       PRES   REMARKS
MARTINSBURG    RAIN      50  49  96 NW6       29.70S FOG
PETERSBURG     CLOUDY    53  52  97 CALM      29.73R
$$




USA.gov is the U.S. government's official web portal to all federal, state and local government web resources and services.